Regional Weather Roundup
Issued by NWS

Home | Current Version | Previous Version | Graphics & Text | Print | Product List | Glossary Off
Versions: 1 2 3 4 5 6 7 8 9 10 11 12 13 14 15 16 17 18 19 20 21 22 23 24 25 26 27 28 29 30 31 32 33 34 35 36 37 38 39 40 41 42 43 44 45 46 47 48 49 50

000
ASUS43 KDTX 221410
RWRMI
MICHIGAN HOURLY REGIONAL WEATHER ROUNDUP
NATIONAL WEATHER SERVICE DETROIT/PONTIAC MI
ISSUED BY NATIONAL WEATHER SERVICE GRAND RAPIDS MI
1000 AM EDT TUE AUG 22 2017

NOTE: "FAIR" INDICATES FEW OR NO CLOUDS BELOW 12,000 FEET WITH NO
SIGNIFICANT WEATHER AND/OR OBSTRUCTION TO VISIBILITY.

MIZ047>049-052>055-059>063-066>070-074>076-081>083-221500-
SOUTHEAST LOWER MICHIGAN

CITY           SKY/WX    TMP DP  RH WIND       PRES   REMARKS
ADRIAN         PTSUNNY   71  66  84 W10       29.85F
ALMA           CLOUDY    71  68  91 SW7       29.76F
ANN ARBOR      LGT RAIN  71  69  93 SW8       29.81F
BAD AXE        RAIN      70  67  90 SW12G20   29.73F
DETROIT CITY   LGT RAIN  74  67  78 W13G23    29.80F
DETROIT        LGT RAIN  73  69  87 SW14      29.82F
FLINT          LGT RAIN  70  68  93 W9        29.78F
GROSSE ILE     DRIZZLE   73  68  86 SW10G18   29.81F
HILLSDALE      DRIZZLE   70  66  88 W9G18     29.86R
HOWELL         LGT RAIN  70  68  94 SW10      29.81S

CITY           SKY/WX    TMP DP  RH WIND       PRES   REMARKS
JACKSON        LGT RAIN  71  68  90 SW13      29.82F
LANSING        CLOUDY    71  67  87 SW13      29.79F
MASON          CLOUDY    71  68  89 SW8G16    29.79F
MONROE         DRIZZLE   72  69  91 SW10      29.82F
MT. CLEMENS    LGT RAIN  74  68  81 W13       29.78R
PONTIAC        LGT RAIN  70  69  97 SW12      29.79S
PORT HOPE        N/A     71  68  90 SW10G21   29.69F
PORT HURON     RAIN      75  66  73 SW7       29.77S
TRI CITIES     CLOUDY    71  70  96 SW13      29.74F
YPSILANTI      LGT RAIN  74  70  87 SW10      29.82F
$$
MIZ043>046-050>051-056>058-064>065-071>073-077>080-221500-
SOUTHWEST LOWER MICHIGAN

CITY           SKY/WX    TMP DP  RH WIND       PRES   REMARKS
BATTLE CREEK   PTSUNNY   71  69  93 W15       29.83S
BENTON HARBOR  CLOUDY    74  68  81 W18G28    29.84F
BIG RAPIDS     CLOUDY    70  63  79 W14G21    29.76S
COLDWATER      CLOUDY    70  70 100 SW9       29.84F
HOLLAND        CLOUDY    73  65  75 W10G21    29.82R
GRAND RAPIDS   CLOUDY    73  68  84 W17       29.79S
KALAMAZOO      CLOUDY    72  67  84 W9        29.83S
MARSHALL       CLOUDY    70  70  98 SW12G17   29.81F
MOUNT PLEASANT CLOUDY    73  68  83 W9        29.74F
MUSKEGON       CLOUDY    73  65  75 W15G21    29.79S
STURGIS        CLOUDY    69  68  96 W12       29.85F
$$
MIZ016>042-221500-
NORTHERN LOWER MICHIGAN

CITY           SKY/WX    TMP DP  RH WIND       PRES   REMARKS
ALPENA         CLOUDY    74  67  78 W12G20    29.64F
BEAVER ISLAND  CLOUDY    62  58  88 NW15G29   29.70R
BELLAIRE       CLOUDY    69  63  82 W6        29.68F
CADILLAC       CLOUDY    70  63  77 W12       29.74F
CHARLEVOIX     LGT RAIN  64  63  97 W18G30    29.72R
GAYLORD        LGT RAIN  67  62  84 W15G22    29.69F
HOUGHTON LAKE  CLOUDY    70  64  81 W15G22    29.73S
MANISTEE       CLOUDY    69  64  84 W17G24    29.74F
OSCODA         CLOUDY    70  68  94 SW13      29.67F
PELLSTON       RAIN      65  63  93 NW20G30   29.65S VSB 1
TRAVERSE CITY  LGT RAIN  70  64  81 W16G24    29.69F
LUDINGTON      CLOUDY    69  64  83 W12G21    29.76F
$$
MIZ007>008-015-221500-
EASTERN UPPER MICHIGAN

CITY           SKY/WX    TMP DP  RH WIND       PRES   REMARKS
KINROSS        CLOUDY    63  61  94 NW22G31   29.62S
MACKINAC ISLAN RAIN      66  66 100 NW13G21   29.62F
NEWBERRY       CLOUDY    59  58  97 NW12G17   29.68R
S. S. MARIE    CLOUDY    64  60  87 W16G23    29.61R
$$
MIZ004>006-011>014-085-221500-
CENTRAL UPPER MICHIGAN

CITY           SKY/WX    TMP DP  RH WIND       PRES   REMARKS
MANISTIQUE     PTSUNNY   61  55  81 NW16G23   29.71R
ESCANABA       MOSUNNY   64  56  75 W16       29.75R
MENOMINEE      SUNNY     66  54  65 NW9G18    29.79R
SAWYER-GWINN   CLOUDY    59  54  82 NW14G20   29.77S
$$
MIZ001>003-009>011-084-221500-
WESTERN UPPER MICHIGAN

CITY           SKY/WX    TMP DP  RH WIND       PRES   REMARKS
IRON MOUNTAIN  PTSUNNY   62  53  72 NW13G22   29.80R
HOUGHTON       LGT RAIN  60  55  83 NW16      29.78F
COPPER HARBOR    N/A     60  55  83 N14G21    29.75S
IRONWOOD       CLOUDY    57  54  89 NW12      29.89R
$$

ABBREVIATIONS USED IN REMARKS
   TC - TEMPERATURE IN CELSIUS
  WCI - WIND CHILL INDEX
   HX - HEAT INDEX
  VSB - VISIBILITY




USA.gov is the U.S. government's official web portal to all federal, state and local government web resources and services.